Location: Newark
(42.9277°N, 71.8621°W)
Time: 18:19:12
(UTC+00:00)

Transit 4A - Pass Details

Date: 16 May 2021
Orbit: 872 x 973 km, 66.8° (Epoch: 15 June)

Event Time Altitude Azimuth Distance (km) Brightness Sun altitude
Rises 08:28:56 0° 316° (NW) 3,477 10.8 -9.2°
Reaches altitude 10° 08:31:58 10° 302° (WNW) 2,528 10.0 -8.8°
Maximum altitude 08:36:15 22° 254° (WSW) 1,826 8.9 -8.1°
Drops below altitude 10° 08:40:32 10° 206° (SSW) 2,515 9.6 -7.5°
Sets 08:43:33 0° 191° (S) 3,454 10.4 -7.0°
